Time,TemperatureF,DewpointF,PressureIn,WindDirection,WindDirectionDegrees,WindSpeedMPH,WindSpeedGustMPH,Humidity,HourlyPrecipIn,Conditions,Clouds,dailyrainin,SoftwareType,DateUTC
2013-01-11 00:04:00,41.9,29.0,30.24,East,90,0.0,-999.0,61,0.00,,,0.00,Rainwise IP-100,2013-01-11 05:04:00,
2013-01-11 00:05:00,41.9,29.0,30.24,East,90,0.0,-999.0,61,0.00,,,0.00,Rainwise IP-100,2013-01-11 05:05:00,
2013-01-11 00:07:00,41.9,31.0,30.24,ENE,67,0.0,-999.0,62,0.00,,,0.00,Rainwise IP-100,2013-01-11 05:07:00,
2013-01-11 00:12:00,41.9,31.0,30.24,ENE,67,0.0,-999.0,62,0.00,,,0.00,Rainwise IP-100,2013-01-11 05:12:00,
2013-01-11 00:17:00,41.9,31.0,30.24,ENE,67,0.0,-999.0,62,0.00,,,0.00,Rainwise IP-100,2013-01-11 05:17:00,
2013-01-11 00:22:00,41.8,31.0,30.24,ENE,67,0.0,-999.0,62,0.00,,,0.00,Rainwise IP-100,2013-01-11 05:22:00,
2013-01-11 00:27:00,41.7,31.0,30.24,ENE,67,0.0,-999.0,64,0.00,,,0.00,Rainwise IP-100,2013-01-11 05:27:00,
2013-01-11 00:32:00,41.5,32.0,30.24,ENE,67,0.0,-999.0,67,0.00,,,0.00,Rainwise IP-100,2013-01-11 05:32:00,
2013-01-11 00:37:00,41.3,32.0,30.24,ENE,67,0.0,-999.0,68,0.00,,,0.00,Rainwise IP-100,2013-01-11 05:37:00,
2013-01-11 00:42:00,41.1,32.0,30.24,ENE,67,0.0,-999.0,68,0.00,,,0.00,Rainwise IP-100,2013-01-11 05:42:00,
2013-01-11 00:47:00,41.0,32.0,30.24,ENE,67,0.0,-999.0,68,0.00,,,0.00,Rainwise IP-100,2013-01-11 05:47:00,
2013-01-11 00:52:00,40.9,32.0,30.23,ENE,67,0.0,-999.0,69,0.00,,,0.00,Rainwise IP-100,2013-01-11 05:52:00,
2013-01-11 00:57:00,40.8,32.0,30.23,ENE,67,0.0,-999.0,69,0.00,,,0.00,Rainwise IP-100,2013-01-11 05:57:00,
2013-01-11 01:02:00,40.7,32.0,30.24,ENE,67,0.0,-999.0,69,0.00,,,0.00,Rainwise IP-100,2013-01-11 06:02:00,
2013-01-11 01:08:00,40.5,32.0,30.23,ENE,67,0.0,-999.0,70,0.00,,,0.00,Rainwise IP-100,2013-01-11 06:08:00,
2013-01-11 01:13:00,40.4,32.0,30.23,ENE,67,0.0,-999.0,70,0.00,,,0.00,Rainwise IP-100,2013-01-11 06:13:00,
2013-01-11 01:18:00,40.2,32.0,30.23,ENE,67,0.0,-999.0,71,0.00,,,0.00,Rainwise IP-100,2013-01-11 06:18:00,
2013-01-11 01:23:00,40.1,32.0,30.23,ENE,67,0.0,-999.0,72,0.00,,,0.00,Rainwise IP-100,2013-01-11 06:23:00,
2013-01-11 01:28:00,39.9,32.0,30.23,ENE,67,0.0,-999.0,72,0.00,,,0.00,Rainwise IP-100,2013-01-11 06:28:00,
2013-01-11 01:33:00,39.6,32.0,30.22,ENE,67,0.0,-999.0,73,0.00,,,0.00,Rainwise IP-100,2013-01-11 06:33:00,
2013-01-11 01:38:00,39.4,32.0,30.22,ENE,67,0.0,-999.0,73,0.00,,,0.00,Rainwise IP-100,2013-01-11 06:38:00,
2013-01-11 01:43:00,39.2,32.0,30.22,ENE,67,0.0,-999.0,73,0.00,,,0.00,Rainwise IP-100,2013-01-11 06:43:00,
2013-01-11 01:48:00,39.0,32.0,30.22,ENE,67,0.0,-999.0,74,0.00,,,0.00,Rainwise IP-100,2013-01-11 06:48:00,
2013-01-11 01:53:00,38.8,32.0,30.22,ENE,67,0.0,-999.0,74,0.00,,,0.00,Rainwise IP-100,2013-01-11 06:53:00,
2013-01-11 01:58:00,38.5,32.0,30.22,ENE,67,0.0,-999.0,73,0.00,,,0.00,Rainwise IP-100,2013-01-11 06:58:00,
2013-01-11 02:03:00,38.3,31.0,30.22,ENE,67,0.0,-999.0,73,0.00,,,0.00,Rainwise IP-100,2013-01-11 07:03:00,
2013-01-11 02:09:00,38.1,31.0,30.23,ENE,67,0.0,-999.0,75,0.00,,,0.00,Rainwise IP-100,2013-01-11 07:09:00,
2013-01-11 02:14:00,37.9,31.0,30.23,ENE,67,0.0,-999.0,75,0.00,,,0.00,Rainwise IP-100,2013-01-11 07:14:00,
2013-01-11 02:19:00,37.7,31.0,30.22,ENE,67,0.0,-999.0,76,0.00,,,0.00,Rainwise IP-100,2013-01-11 07:19:00,
2013-01-11 02:24:00,37.4,31.0,30.22,ENE,67,0.0,-999.0,76,0.00,,,0.00,Rainwise IP-100,2013-01-11 07:24:00,
2013-01-11 02:29:00,37.2,31.0,30.21,ENE,67,0.0,-999.0,76,0.00,,,0.00,Rainwise IP-100,2013-01-11 07:29:00,
2013-01-11 02:34:00,36.8,31.0,30.20,ENE,67,0.0,-999.0,76,0.00,,,0.00,Rainwise IP-100,2013-01-11 07:34:00,
2013-01-11 02:39:00,36.6,31.0,30.20,ENE,67,0.0,-999.0,77,0.00,,,0.00,Rainwise IP-100,2013-01-11 07:39:00,
2013-01-11 02:44:00,36.5,31.0,30.21,ENE,67,0.0,-999.0,77,0.00,,,0.00,Rainwise IP-100,2013-01-11 07:44:00,
2013-01-11 02:49:00,36.4,29.0,30.21,ENE,67,0.0,-999.0,77,0.00,,,0.00,Rainwise IP-100,2013-01-11 07:49:00,
2013-01-11 02:54:00,36.2,29.0,30.21,ENE,67,0.0,-999.0,78,0.00,,,0.00,Rainwise IP-100,2013-01-11 07:54:00,
2013-01-11 02:59:00,36.0,29.0,30.21,ENE,67,0.0,-999.0,78,0.00,,,0.00,Rainwise IP-100,2013-01-11 07:59:00,
2013-01-11 03:04:00,35.7,29.0,30.21,ENE,67,0.0,-999.0,78,0.00,,,0.00,Rainwise IP-100,2013-01-11 08:04:00,
2013-01-11 03:10:00,35.7,29.0,30.21,ENE,67,0.0,-999.0,78,0.00,,,0.00,Rainwise IP-100,2013-01-11 08:10:00,
2013-01-11 03:15:00,35.8,29.0,30.20,ENE,67,0.0,-999.0,78,0.00,,,0.00,Rainwise IP-100,2013-01-11 08:15:00,
2013-01-11 03:20:00,35.6,31.0,30.20,ENE,67,0.0,-999.0,79,0.00,,,0.00,Rainwise IP-100,2013-01-11 08:20:00,
2013-01-11 03:25:00,35.5,31.0,30.20,ENE,67,0.0,-999.0,80,0.00,,,0.00,Rainwise IP-100,2013-01-11 08:25:00,
2013-01-11 03:30:00,35.3,29.0,30.20,ENE,67,0.0,-999.0,80,0.00,,,0.00,Rainwise IP-100,2013-01-11 08:30:00,
2013-01-11 03:35:00,35.0,29.0,30.19,ENE,67,0.0,-999.0,80,0.00,,,0.00,Rainwise IP-100,2013-01-11 08:35:00,
2013-01-11 03:40:00,34.8,29.0,30.19,ENE,67,0.0,-999.0,81,0.00,,,0.00,Rainwise IP-100,2013-01-11 08:40:00,
2013-01-11 03:45:00,34.7,29.0,30.19,ENE,67,0.0,-999.0,81,0.00,,,0.00,Rainwise IP-100,2013-01-11 08:45:00,
2013-01-11 03:50:00,34.6,29.0,30.19,ENE,67,0.0,-999.0,81,0.00,,,0.00,Rainwise IP-100,2013-01-11 08:50:00,
2013-01-11 03:55:00,34.4,29.0,30.19,ENE,67,0.0,-999.0,81,0.00,,,0.00,Rainwise IP-100,2013-01-11 08:55:00,
2013-01-11 04:01:00,34.3,29.0,30.19,ENE,67,0.0,-999.0,82,0.00,,,0.00,Rainwise IP-100,2013-01-11 09:01:00,
2013-01-11 04:06:00,34.1,29.0,30.18,ENE,67,0.0,-999.0,82,0.00,,,0.00,Rainwise IP-100,2013-01-11 09:06:00,
2013-01-11 04:11:00,34.0,29.0,30.18,ENE,67,0.0,-999.0,82,0.00,,,0.00,Rainwise IP-100,2013-01-11 09:11:00,
2013-01-11 04:16:00,33.8,29.0,30.18,ENE,67,0.0,-999.0,82,0.00,,,0.00,Rainwise IP-100,2013-01-11 09:16:00,
2013-01-11 04:21:00,33.7,31.0,30.18,ENE,67,0.0,-999.0,83,0.00,,,0.00,Rainwise IP-100,2013-01-11 09:21:00,
2013-01-11 04:26:00,33.6,31.0,30.18,ENE,67,0.0,-999.0,83,0.00,,,0.00,Rainwise IP-100,2013-01-11 09:26:00,
2013-01-11 04:31:00,33.5,29.0,30.18,ENE,67,0.0,-999.0,82,0.00,,,0.00,Rainwise IP-100,2013-01-11 09:31:00,
2013-01-11 04:36:00,33.5,29.0,30.18,ENE,67,0.0,-999.0,82,0.00,,,0.00,Rainwise IP-100,2013-01-11 09:36:00,
2013-01-11 04:41:00,33.6,29.0,30.17,ENE,67,0.0,-999.0,82,0.00,,,0.00,Rainwise IP-100,2013-01-11 09:41:00,
2013-01-11 04:47:00,33.7,31.0,30.18,ENE,67,0.0,-999.0,83,0.00,,,0.00,Rainwise IP-100,2013-01-11 09:47:00,
2013-01-11 04:52:00,33.8,31.0,30.19,ENE,67,0.0,-999.0,83,0.00,,,0.00,Rainwise IP-100,2013-01-11 09:52:00,
2013-01-11 04:57:00,33.9,29.0,30.18,ENE,67,0.0,-999.0,82,0.00,,,0.00,Rainwise IP-100,2013-01-11 09:57:00,
2013-01-11 05:02:00,33.9,29.0,30.18,ENE,67,0.0,-999.0,82,0.00,,,0.00,Rainwise IP-100,2013-01-11 10:02:00,
2013-01-11 05:07:00,34.0,29.0,30.17,ENE,67,0.0,-999.0,82,0.00,,,0.00,Rainwise IP-100,2013-01-11 10:07:00,
2013-01-11 05:12:00,34.2,31.0,30.17,ENE,67,0.0,-999.0,83,0.00,,,0.00,Rainwise IP-100,2013-01-11 10:12:00,
2013-01-11 05:17:00,34.3,31.0,30.16,ENE,67,0.0,-999.0,83,0.00,,,0.00,Rainwise IP-100,2013-01-11 10:17:00,
2013-01-11 05:22:00,34.4,31.0,30.17,ENE,67,0.0,-999.0,83,0.00,,,0.00,Rainwise IP-100,2013-01-11 10:22:00,
2013-01-11 05:27:00,34.4,31.0,30.16,ENE,67,0.0,-999.0,83,0.00,,,0.00,Rainwise IP-100,2013-01-11 10:27:00,
2013-01-11 05:32:00,34.4,31.0,30.16,ENE,67,0.0,-999.0,83,0.00,,,0.00,Rainwise IP-100,2013-01-11 10:32:00,
2013-01-11 05:37:00,34.4,31.0,30.18,ENE,67,0.0,-999.0,83,0.00,,,0.00,Rainwise IP-100,2013-01-11 10:37:00,
2013-01-11 05:43:00,34.3,31.0,30.17,ENE,67,0.0,-999.0,83,0.00,,,0.00,Rainwise IP-100,2013-01-11 10:43:00,
2013-01-11 05:48:00,34.2,31.0,30.17,ENE,67,0.0,-999.0,83,0.00,,,0.00,Rainwise IP-100,2013-01-11 10:48:00,
2013-01-11 05:53:00,34.1,31.0,30.16,ENE,67,0.0,-999.0,83,0.00,,,0.00,Rainwise IP-100,2013-01-11 10:53:00,
2013-01-11 05:58:00,34.0,31.0,30.16,ENE,67,0.0,-999.0,83,0.00,,,0.00,Rainwise IP-100,2013-01-11 10:58:00,
2013-01-11 06:03:00,33.9,31.0,30.16,ENE,67,0.0,-999.0,84,0.00,,,0.00,Rainwise IP-100,2013-01-11 11:03:00,
2013-01-11 06:08:00,33.8,31.0,30.16,SE,135,0.0,-999.0,84,0.00,,,0.00,Rainwise IP-100,2013-01-11 11:08:00,
2013-01-11 06:13:00,33.8,31.0,30.16,SE,135,0.0,-999.0,84,0.00,,,0.00,Rainwise IP-100,2013-01-11 11:13:00,
2013-01-11 06:18:00,33.7,31.0,30.16,SE,135,0.0,-999.0,84,0.00,,,0.00,Rainwise IP-100,2013-01-11 11:18:00,
2013-01-11 06:23:00,33.5,31.0,30.16,SE,135,0.0,-999.0,84,0.00,,,0.00,Rainwise IP-100,2013-01-11 11:23:00,
2013-01-11 06:28:00,33.3,29.0,30.15,SE,135,0.0,-999.0,84,0.00,,,0.00,Rainwise IP-100,2013-01-11 11:28:00,
2013-01-11 06:33:00,33.2,29.0,30.14,SE,135,0.0,-999.0,85,0.00,,,0.00,Rainwise IP-100,2013-01-11 11:33:00,
2013-01-11 06:38:00,33.0,29.0,30.14,SE,135,0.0,-999.0,86,0.00,,,0.00,Rainwise IP-100,2013-01-11 11:38:00,
2013-01-11 06:44:00,32.9,29.0,30.14,SE,135,0.0,-999.0,86,0.00,,,0.00,Rainwise IP-100,2013-01-11 11:44:00,
2013-01-11 06:49:00,32.8,29.0,30.15,SE,135,0.0,-999.0,86,0.00,,,0.00,Rainwise IP-100,2013-01-11 11:49:00,
2013-01-11 06:54:00,32.7,29.0,30.14,SE,135,0.0,-999.0,86,0.00,,,0.00,Rainwise IP-100,2013-01-11 11:54:00,
2013-01-11 06:59:00,32.6,31.0,30.14,SE,135,0.0,-999.0,87,0.00,,,0.00,Rainwise IP-100,2013-01-11 11:59:00,
2013-01-11 07:04:00,32.4,29.0,30.14,SE,135,0.0,-999.0,87,0.00,,,0.00,Rainwise IP-100,2013-01-11 12:04:00,
2013-01-11 07:09:00,32.4,29.0,30.15,SE,135,0.0,-999.0,87,0.00,,,0.00,Rainwise IP-100,2013-01-11 12:09:00,
2013-01-11 07:14:00,32.7,31.0,30.16,SE,135,0.0,-999.0,87,0.00,,,0.00,Rainwise IP-100,2013-01-11 12:14:00,
2013-01-11 07:19:00,33.1,31.0,30.15,SE,135,0.0,-999.0,88,0.00,,,0.00,Rainwise IP-100,2013-01-11 12:19:00,
2013-01-11 07:24:00,33.4,31.0,30.14,SE,135,0.0,-999.0,87,0.00,,,0.00,Rainwise IP-100,2013-01-11 12:24:00,
2013-01-11 07:29:00,33.7,31.0,30.15,SE,135,0.0,-999.0,87,0.00,,,0.00,Rainwise IP-100,2013-01-11 12:29:00,
2013-01-11 07:34:00,33.9,31.0,30.14,SE,135,0.0,-999.0,87,0.00,,,0.00,Rainwise IP-100,2013-01-11 12:34:00,
2013-01-11 07:39:00,34.1,31.0,30.14,SE,135,0.0,-999.0,87,0.00,,,0.00,Rainwise IP-100,2013-01-11 12:39:00,
2013-01-11 07:45:00,34.2,31.0,30.14,SE,135,0.0,-999.0,87,0.00,,,0.00,Rainwise IP-100,2013-01-11 12:45:00,
2013-01-11 07:50:00,34.4,31.0,30.14,SE,135,0.0,-999.0,87,0.00,,,0.00,Rainwise IP-100,2013-01-11 12:50:00,
2013-01-11 07:55:00,34.6,31.0,30.14,SE,135,0.0,-999.0,87,0.00,,,0.00,Rainwise IP-100,2013-01-11 12:55:00,
2013-01-11 08:00:00,34.8,31.0,30.14,SE,135,0.0,-999.0,86,0.00,,,0.00,Rainwise IP-100,2013-01-11 13:00:00,
2013-01-11 08:05:00,35.0,31.0,30.14,SE,135,0.0,-999.0,85,0.00,,,0.00,Rainwise IP-100,2013-01-11 13:05:00,
2013-01-11 08:10:00,35.4,31.0,30.14,SE,135,0.0,-999.0,85,0.00,,,0.00,Rainwise IP-100,2013-01-11 13:10:00,
2013-01-11 08:15:00,35.7,32.0,30.15,SE,135,0.0,-999.0,85,0.00,,,0.00,Rainwise IP-100,2013-01-11 13:15:00,
2013-01-11 08:20:00,35.9,32.0,30.14,SE,135,0.0,-999.0,85,0.00,,,0.00,Rainwise IP-100,2013-01-11 13:20:00,
2013-01-11 08:25:00,36.3,32.0,30.14,SE,135,0.0,-999.0,84,0.00,,,0.00,Rainwise IP-100,2013-01-11 13:25:00,
2013-01-11 08:30:00,36.5,32.0,30.14,SE,135,0.0,-999.0,84,0.00,,,0.00,Rainwise IP-100,2013-01-11 13:30:00,
2013-01-11 08:35:00,36.7,32.0,30.14,SE,135,0.0,-999.0,83,0.00,,,0.00,Rainwise IP-100,2013-01-11 13:35:00,
2013-01-11 08:40:00,36.9,32.0,30.14,SE,135,0.0,-999.0,82,0.00,,,0.00,Rainwise IP-100,2013-01-11 13:40:00,
2013-01-11 08:46:00,37.2,32.0,30.14,SE,135,0.0,-999.0,82,0.00,,,0.00,Rainwise IP-100,2013-01-11 13:46:00,
2013-01-11 08:51:00,37.6,33.0,30.13,SE,135,0.0,-999.0,81,0.00,,,0.00,Rainwise IP-100,2013-01-11 13:51:00,
2013-01-11 08:56:00,37.9,33.0,30.13,SE,135,0.0,-999.0,81,0.00,,,0.00,Rainwise IP-100,2013-01-11 13:56:00,
2013-01-11 09:01:00,38.2,32.0,30.13,SE,135,0.0,-999.0,80,0.00,,,0.00,Rainwise IP-100,2013-01-11 14:01:00,
2013-01-11 09:06:00,38.4,32.0,30.14,SE,135,0.0,-999.0,79,0.00,,,0.00,Rainwise IP-100,2013-01-11 14:06:00,
2013-01-11 09:11:00,38.6,33.0,30.13,SE,135,0.0,-999.0,79,0.00,,,0.00,Rainwise IP-100,2013-01-11 14:11:00,
2013-01-11 09:16:00,38.9,33.0,30.13,SE,135,0.0,-999.0,79,0.00,,,0.00,Rainwise IP-100,2013-01-11 14:16:00,
2013-01-11 09:21:00,39.4,33.0,30.13,SE,135,0.0,-999.0,79,0.00,,,0.00,Rainwise IP-100,2013-01-11 14:21:00,
2013-01-11 09:26:00,39.9,35.0,30.13,SE,135,0.0,-999.0,78,0.00,,,0.00,Rainwise IP-100,2013-01-11 14:26:00,
2013-01-11 09:31:00,40.2,35.0,30.11,SE,135,0.0,-999.0,78,0.00,,,0.00,Rainwise IP-100,2013-01-11 14:31:00,
2013-01-11 09:36:00,40.6,35.0,30.12,SE,135,0.0,-999.0,77,0.00,,,0.00,Rainwise IP-100,2013-01-11 14:36:00,
2013-01-11 09:41:00,41.1,35.0,30.12,SE,135,0.0,-999.0,77,0.00,,,0.00,Rainwise IP-100,2013-01-11 14:41:00,
2013-01-11 09:47:00,41.7,36.0,30.11,SE,135,0.0,-999.0,76,0.00,,,0.00,Rainwise IP-100,2013-01-11 14:47:00,
2013-01-11 09:52:00,42.5,36.0,30.10,ENE,67,0.0,-999.0,74,0.00,,,0.00,Rainwise IP-100,2013-01-11 14:52:00,
2013-01-11 09:57:00,43.1,35.0,30.10,ENE,67,0.0,-999.0,73,0.00,,,0.00,Rainwise IP-100,2013-01-11 14:57:00,
2013-01-11 10:02:00,43.4,35.0,30.11,NE,45,1.2,-999.0,72,0.00,,,0.00,Rainwise IP-100,2013-01-11 15:02:00,
2013-01-11 10:07:00,43.5,35.0,30.11,NE,45,0.0,-999.0,70,0.00,,,0.00,Rainwise IP-100,2013-01-11 15:07:00,
2013-01-11 10:12:00,43.5,35.0,30.10,NE,45,0.0,-999.0,70,0.00,,,0.00,Rainwise IP-100,2013-01-11 15:12:00,
2013-01-11 10:17:00,43.6,35.0,30.10,NE,45,0.0,-999.0,69,0.00,,,0.00,Rainwise IP-100,2013-01-11 15:17:00,
2013-01-11 10:22:00,43.6,35.0,30.11,NE,45,0.0,-999.0,70,0.00,,,0.00,Rainwise IP-100,2013-01-11 15:22:00,
2013-01-11 10:27:00,43.7,35.0,30.10,NE,45,0.0,-999.0,70,0.00,,,0.00,Rainwise IP-100,2013-01-11 15:27:00,
2013-01-11 10:32:00,43.7,35.0,30.10,NE,45,0.0,-999.0,69,0.00,,,0.00,Rainwise IP-100,2013-01-11 15:32:00,
2013-01-11 10:37:00,43.8,35.0,30.09,NE,45,0.0,-999.0,69,0.00,,,0.00,Rainwise IP-100,2013-01-11 15:37:00,
2013-01-11 10:42:00,43.9,35.0,30.09,NE,45,0.0,-999.0,69,0.00,,,0.00,Rainwise IP-100,2013-01-11 15:42:00,
2013-01-11 10:48:00,44.0,35.0,30.09,WNW,292,0.0,-999.0,68,0.00,,,0.00,Rainwise IP-100,2013-01-11 15:48:00,
2013-01-11 10:53:00,44.0,33.0,30.09,WNW,292,0.0,-999.0,67,0.00,,,0.00,Rainwise IP-100,2013-01-11 15:53:00,
2013-01-11 10:58:00,44.0,35.0,30.08,WNW,292,0.0,-999.0,68,0.00,,,0.00,Rainwise IP-100,2013-01-11 15:58:00,
2013-01-11 11:03:00,43.9,35.0,30.08,WNW,292,0.0,-999.0,68,0.00,,,0.00,Rainwise IP-100,2013-01-11 16:03:00,
2013-01-11 11:08:00,43.8,35.0,30.08,WNW,292,0.0,-999.0,68,0.00,,,0.00,Rainwise IP-100,2013-01-11 16:08:00,
2013-01-11 11:13:00,43.7,35.0,30.07,WNW,292,0.0,-999.0,68,0.00,,,0.00,Rainwise IP-100,2013-01-11 16:13:00,
2013-01-11 11:18:00,43.7,35.0,30.06,WNW,292,0.0,-999.0,69,0.00,,,0.00,Rainwise IP-100,2013-01-11 16:18:00,
2013-01-11 11:23:00,43.7,35.0,30.06,WNW,292,0.0,-999.0,69,0.00,,,0.00,Rainwise IP-100,2013-01-11 16:23:00,
2013-01-11 11:28:00,43.7,35.0,30.05,WNW,292,0.0,-999.0,68,0.00,,,0.00,Rainwise IP-100,2013-01-11 16:28:00,
2013-01-11 11:33:00,43.8,35.0,30.05,WNW,292,0.0,-999.0,68,0.00,,,0.00,Rainwise IP-100,2013-01-11 16:33:00,
2013-01-11 11:38:00,43.9,35.0,30.04,WNW,292,0.0,-999.0,68,0.00,,,0.00,Rainwise IP-100,2013-01-11 16:38:00,
2013-01-11 11:44:00,44.1,35.0,30.04,WNW,292,1.2,-999.0,68,0.00,,,0.00,Rainwise IP-100,2013-01-11 16:44:00,
2013-01-11 11:49:00,44.2,33.0,30.03,NNE,22,0.0,-999.0,67,0.00,,,0.00,Rainwise IP-100,2013-01-11 16:49:00,
2013-01-11 11:54:00,44.4,33.0,30.03,NE,45,0.0,-999.0,67,0.00,,,0.00,Rainwise IP-100,2013-01-11 16:54:00,
2013-01-11 11:59:00,44.6,35.0,30.03,NE,45,0.0,-999.0,67,0.00,,,0.00,Rainwise IP-100,2013-01-11 16:59:00,
2013-01-11 12:04:00,44.8,35.0,30.02,ENE,67,0.0,-999.0,66,0.00,,,0.00,Rainwise IP-100,2013-01-11 17:04:00,
2013-01-11 12:09:00,45.0,35.0,30.02,ENE,67,0.0,-999.0,66,0.00,,,0.00,Rainwise IP-100,2013-01-11 17:09:00,
2013-01-11 12:14:00,45.0,35.0,30.02,ENE,67,0.0,-999.0,66,0.00,,,0.00,Rainwise IP-100,2013-01-11 17:14:00,
2013-01-11 12:19:00,45.0,35.0,30.00,NE,45,0.0,-999.0,67,0.00,,,0.00,Rainwise IP-100,2013-01-11 17:19:00,
2013-01-11 12:24:00,45.0,35.0,30.01,NE,45,0.0,-999.0,67,0.00,,,0.00,Rainwise IP-100,2013-01-11 17:24:00,
2013-01-11 12:29:00,45.1,35.0,30.00,NE,45,2.6,-999.0,68,0.00,,,0.00,Rainwise IP-100,2013-01-11 17:29:00,
2013-01-11 12:34:00,45.1,36.0,30.00,NNE,22,0.0,-999.0,69,0.00,,,0.00,Rainwise IP-100,2013-01-11 17:34:00,
2013-01-11 12:39:00,45.1,36.0,30.00,ENE,67,0.0,-999.0,70,0.00,,,0.00,Rainwise IP-100,2013-01-11 17:39:00,
2013-01-11 12:45:00,45.0,36.0,30.00,ENE,67,0.0,-999.0,70,0.00,,,0.00,Rainwise IP-100,2013-01-11 17:45:00,
2013-01-11 12:50:00,45.0,36.0,30.00,ENE,67,0.0,-999.0,70,0.00,,,0.00,Rainwise IP-100,2013-01-11 17:50:00,
2013-01-11 12:55:00,44.9,36.0,29.99,WSW,247,0.0,-999.0,71,0.00,,,0.00,Rainwise IP-100,2013-01-11 17:55:00,
2013-01-11 13:00:00,44.9,37.0,29.99,WSW,247,0.0,-999.0,72,0.00,,,0.00,Rainwise IP-100,2013-01-11 18:00:00,
2013-01-11 13:05:00,44.9,37.0,29.98,WSW,247,0.0,-999.0,72,0.00,,,0.00,Rainwise IP-100,2013-01-11 18:05:00,
2013-01-11 13:10:00,44.8,37.0,29.98,WSW,247,0.0,-999.0,72,0.00,,,0.00,Rainwise IP-100,2013-01-11 18:10:00,
2013-01-11 13:15:00,44.8,37.0,29.98,WSW,247,0.0,-999.0,72,0.00,,,0.00,Rainwise IP-100,2013-01-11 18:15:00,
2013-01-11 13:20:00,44.7,37.0,29.97,WSW,247,0.0,-999.0,73,0.00,,,0.00,Rainwise IP-100,2013-01-11 18:20:00,
2013-01-11 13:25:00,44.7,37.0,29.97,WSW,247,0.0,-999.0,74,0.00,,,0.00,Rainwise IP-100,2013-01-11 18:25:00,
2013-01-11 13:30:00,44.6,38.0,29.96,WSW,247,0.0,-999.0,75,0.00,,,0.00,Rainwise IP-100,2013-01-11 18:30:00,
2013-01-11 13:35:00,44.5,38.0,29.97,WSW,247,0.0,-999.0,75,0.00,,,0.00,Rainwise IP-100,2013-01-11 18:35:00,
2013-01-11 13:40:00,44.5,38.0,29.97,WSW,247,0.0,-999.0,75,0.00,,,0.00,Rainwise IP-100,2013-01-11 18:40:00,
2013-01-11 13:46:00,44.5,38.0,29.97,NNE,22,0.0,-999.0,76,0.00,,,0.00,Rainwise IP-100,2013-01-11 18:46:00,
2013-01-11 13:51:00,44.4,37.0,29.97,NNE,22,0.0,-999.0,76,0.00,,,0.00,Rainwise IP-100,2013-01-11 18:51:00,
2013-01-11 13:56:00,44.4,37.0,29.97,NNE,22,0.0,-999.0,76,0.00,,,0.00,Rainwise IP-100,2013-01-11 18:56:00,
2013-01-11 14:01:00,44.4,37.0,29.96,NNE,22,0.0,-999.0,76,0.00,,,0.00,Rainwise IP-100,2013-01-11 19:01:00,
2013-01-11 14:06:00,44.3,37.0,29.96,NNE,22,0.0,-999.0,77,0.00,,,0.00,Rainwise IP-100,2013-01-11 19:06:00,
2013-01-11 14:11:00,44.2,38.0,29.95,North,360,0.0,-999.0,78,0.00,,,0.00,Rainwise IP-100,2013-01-11 19:11:00,
2013-01-11 14:16:00,44.1,38.0,29.94,NNE,22,0.0,-999.0,79,0.00,,,0.00,Rainwise IP-100,2013-01-11 19:16:00,
2013-01-11 14:21:00,44.0,38.0,29.94,NNE,22,0.0,-999.0,80,0.00,,,0.00,Rainwise IP-100,2013-01-11 19:21:00,
2013-01-11 14:26:00,43.9,38.0,29.94,NNE,22,0.0,-999.0,81,0.00,,,0.00,Rainwise IP-100,2013-01-11 19:26:00,
2013-01-11 14:31:00,43.8,38.0,29.95,NNE,22,0.0,-999.0,81,0.00,,,0.00,Rainwise IP-100,2013-01-11 19:31:00,
2013-01-11 14:36:00,43.7,38.0,29.94,WSW,247,0.0,-999.0,81,0.00,,,0.00,Rainwise IP-100,2013-01-11 19:36:00,
2013-01-11 14:41:00,43.6,38.0,29.95,WSW,247,0.0,-999.0,81,0.00,,,0.00,Rainwise IP-100,2013-01-11 19:41:00,
2013-01-11 14:47:00,43.4,38.0,29.94,WSW,247,0.0,-999.0,82,0.00,,,0.00,Rainwise IP-100,2013-01-11 19:47:00,
2013-01-11 14:53:00,43.4,38.0,29.94,WSW,247,0.0,-999.0,83,0.00,,,0.00,Rainwise IP-100,2013-01-11 19:53:00,
2013-01-11 14:58:00,43.1,39.0,29.94,WSW,247,0.0,-999.0,84,0.00,,,0.00,Rainwise IP-100,2013-01-11 19:58:00,
2013-01-11 15:03:00,42.9,39.0,29.94,WSW,247,0.0,-999.0,84,0.00,,,0.00,Rainwise IP-100,2013-01-11 20:03:00,
2013-01-11 15:08:00,42.8,39.0,29.95,WSW,247,0.0,-999.0,85,0.00,,,0.00,Rainwise IP-100,2013-01-11 20:08:00,
2013-01-11 15:13:00,42.7,39.0,29.94,WSW,247,0.0,-999.0,86,0.00,,,0.00,Rainwise IP-100,2013-01-11 20:13:00,
2013-01-11 15:18:00,42.6,39.0,29.93,WSW,247,0.0,-999.0,87,0.00,,,0.00,Rainwise IP-100,2013-01-11 20:18:00,
2013-01-11 15:23:00,42.4,38.0,29.93,WSW,247,0.0,-999.0,87,0.00,,,0.00,Rainwise IP-100,2013-01-11 20:23:00,
2013-01-11 15:28:00,42.3,39.0,29.93,WSW,247,0.0,-999.0,88,0.00,,,0.00,Rainwise IP-100,2013-01-11 20:28:00,
2013-01-11 15:33:00,42.2,39.0,29.93,West,270,0.0,-999.0,88,0.00,,,0.00,Rainwise IP-100,2013-01-11 20:33:00,
2013-01-11 15:38:00,42.1,39.0,29.93,West,270,0.0,-999.0,89,0.00,,,0.00,Rainwise IP-100,2013-01-11 20:38:00,
2013-01-11 15:43:00,42.0,39.0,29.93,West,270,0.0,-999.0,89,0.00,,,0.00,Rainwise IP-100,2013-01-11 20:43:00,
2013-01-11 15:49:00,42.0,39.0,29.92,West,270,0.0,-999.0,89,0.00,,,0.00,Rainwise IP-100,2013-01-11 20:49:00,
2013-01-11 15:54:00,41.8,39.0,29.92,West,270,0.0,-999.0,90,0.00,,,0.00,Rainwise IP-100,2013-01-11 20:54:00,
2013-01-11 15:59:00,41.8,39.0,29.92,West,270,0.0,-999.0,90,0.00,,,0.00,Rainwise IP-100,2013-01-11 20:59:00,
2013-01-11 16:04:00,41.7,39.0,29.92,West,270,0.0,-999.0,90,0.00,,,0.00,Rainwise IP-100,2013-01-11 21:04:00,
2013-01-11 16:09:00,41.7,39.0,29.93,West,270,0.0,-999.0,90,0.00,,,0.00,Rainwise IP-100,2013-01-11 21:09:00,
2013-01-11 16:14:00,41.6,39.0,29.92,West,270,0.0,-999.0,90,0.00,,,0.00,Rainwise IP-100,2013-01-11 21:14:00,
2013-01-11 16:19:00,41.6,40.0,29.92,West,270,0.0,-999.0,91,0.00,,,0.00,Rainwise IP-100,2013-01-11 21:19:00,
2013-01-11 16:24:00,41.5,40.0,29.91,West,270,0.0,-999.0,91,0.00,,,0.00,Rainwise IP-100,2013-01-11 21:24:00,
2013-01-11 16:29:00,41.5,40.0,29.91,West,270,0.0,-999.0,91,0.00,,,0.01,Rainwise IP-100,2013-01-11 21:29:00,
2013-01-11 16:34:00,41.6,40.0,29.90,West,270,0.0,-999.0,91,0.06,,,0.01,Rainwise IP-100,2013-01-11 21:34:00,
2013-01-11 16:39:00,41.5,40.0,29.90,West,270,0.0,-999.0,92,0.06,,,0.01,Rainwise IP-100,2013-01-11 21:39:00,
2013-01-11 16:44:00,41.5,40.0,29.90,West,270,0.0,-999.0,92,0.00,,,0.01,Rainwise IP-100,2013-01-11 21:44:00,
2013-01-11 16:50:00,41.4,39.0,29.90,West,270,0.0,-999.0,93,0.00,,,0.01,Rainwise IP-100,2013-01-11 21:50:00,
2013-01-11 16:55:00,41.4,39.0,29.90,West,270,0.0,-999.0,93,0.06,,,0.02,Rainwise IP-100,2013-01-11 21:55:00,
2013-01-11 17:00:00,41.4,39.0,29.89,West,270,0.0,-999.0,93,0.06,,,0.02,Rainwise IP-100,2013-01-11 22:00:00,
2013-01-11 17:05:00,41.4,39.0,29.90,West,270,0.0,-999.0,93,0.00,,,0.02,Rainwise IP-100,2013-01-11 22:05:00,
2013-01-11 17:10:00,41.4,39.0,29.90,West,270,0.0,-999.0,94,0.00,,,0.02,Rainwise IP-100,2013-01-11 22:10:00,
2013-01-11 17:15:00,41.3,39.0,29.90,West,270,0.0,-999.0,94,0.18,,,0.05,Rainwise IP-100,2013-01-11 22:15:00,
2013-01-11 17:20:00,41.3,39.0,29.90,West,270,0.0,-999.0,94,0.48,,,0.11,Rainwise IP-100,2013-01-11 22:20:00,
2013-01-11 17:25:00,41.3,39.0,29.89,West,270,0.0,-999.0,94,0.42,,,0.12,Rainwise IP-100,2013-01-11 22:25:00,
2013-01-11 17:30:00,41.3,39.0,29.88,West,270,0.0,-999.0,94,0.12,,,0.12,Rainwise IP-100,2013-01-11 22:30:00,
2013-01-11 17:35:00,41.3,39.0,29.88,West,270,0.0,-999.0,94,0.00,,,0.12,Rainwise IP-100,2013-01-11 22:35:00,
2013-01-11 17:40:00,41.3,39.0,29.89,West,270,0.0,-999.0,94,0.00,,,0.12,Rainwise IP-100,2013-01-11 22:40:00,
2013-01-11 17:45:00,41.3,40.0,29.89,West,270,0.0,-999.0,95,0.00,,,0.12,Rainwise IP-100,2013-01-11 22:45:00,
2013-01-11 17:51:00,41.3,40.0,29.89,West,270,0.0,-999.0,95,0.00,,,0.12,Rainwise IP-100,2013-01-11 22:51:00,
2013-01-11 17:56:00,41.3,40.0,29.89,West,270,0.0,-999.0,95,0.00,,,0.12,Rainwise IP-100,2013-01-11 22:56:00,
2013-01-11 18:01:00,41.4,40.0,29.89,West,270,0.0,-999.0,95,0.00,,,0.12,Rainwise IP-100,2013-01-11 23:01:00,
2013-01-11 18:06:00,41.4,40.0,29.88,West,270,0.0,-999.0,95,0.00,,,0.12,Rainwise IP-100,2013-01-11 23:06:00,
2013-01-11 18:11:00,41.4,40.0,29.88,West,270,0.0,-999.0,95,0.00,,,0.12,Rainwise IP-100,2013-01-11 23:11:00,
2013-01-11 18:16:00,41.5,41.0,29.89,West,270,0.0,-999.0,95,0.00,,,0.12,Rainwise IP-100,2013-01-11 23:16:00,
2013-01-11 18:21:00,41.5,41.0,29.88,West,270,0.0,-999.0,95,0.00,,,0.12,Rainwise IP-100,2013-01-11 23:21:00,
2013-01-11 18:26:00,41.5,41.0,29.88,West,270,0.0,-999.0,95,0.00,,,0.12,Rainwise IP-100,2013-01-11 23:26:00,
2013-01-11 18:31:00,41.5,41.0,29.88,West,270,0.0,-999.0,95,0.00,,,0.12,Rainwise IP-100,2013-01-11 23:31:00,
2013-01-11 18:36:00,41.5,41.0,29.88,West,270,0.0,-999.0,95,0.00,,,0.12,Rainwise IP-100,2013-01-11 23:36:00,
2013-01-11 18:41:00,41.5,41.0,29.88,West,270,0.0,-999.0,96,0.00,,,0.12,Rainwise IP-100,2013-01-11 23:41:00,
2013-01-11 18:46:00,41.6,41.0,29.88,West,270,0.0,-999.0,96,0.00,,,0.12,Rainwise IP-100,2013-01-11 23:46:00,
2013-01-11 18:52:00,41.6,41.0,29.88,West,270,0.0,-999.0,96,0.00,,,0.12,Rainwise IP-100,2013-01-11 23:52:00,
2013-01-11 18:57:00,41.7,41.0,29.88,West,270,0.0,-999.0,96,0.00,,,0.12,Rainwise IP-100,2013-01-11 23:57:00,
2013-01-11 19:02:00,41.7,41.0,29.88,West,270,0.0,-999.0,96,0.00,,,0.12,Rainwise IP-100,2013-01-12 00:02:00,
2013-01-11 19:07:00,41.7,41.0,29.88,West,270,0.0,-999.0,96,0.00,,,0.12,Rainwise IP-100,2013-01-12 00:07:00,
2013-01-11 19:12:00,41.8,41.0,29.88,West,270,0.0,-999.0,96,0.00,,,0.12,Rainwise IP-100,2013-01-12 00:12:00,
2013-01-11 19:17:00,41.8,41.0,29.87,West,270,0.0,-999.0,97,0.00,,,0.12,Rainwise IP-100,2013-01-12 00:17:00,
2013-01-11 19:22:00,41.8,41.0,29.87,West,270,0.0,-999.0,97,0.00,,,0.12,Rainwise IP-100,2013-01-12 00:22:00,
2013-01-11 19:27:00,41.9,41.0,29.87,West,270,0.0,-999.0,97,0.00,,,0.12,Rainwise IP-100,2013-01-12 00:27:00,
2013-01-11 19:32:00,41.9,41.0,29.86,West,270,0.0,-999.0,97,0.00,,,0.12,Rainwise IP-100,2013-01-12 00:32:00,
2013-01-11 19:37:00,41.9,41.0,29.86,West,270,0.0,-999.0,97,0.00,,,0.12,Rainwise IP-100,2013-01-12 00:37:00,
2013-01-11 19:42:00,41.9,41.0,29.86,West,270,0.0,-999.0,97,0.00,,,0.12,Rainwise IP-100,2013-01-12 00:42:00,
2013-01-11 19:47:00,41.9,41.0,29.86,West,270,0.0,-999.0,97,0.00,,,0.12,Rainwise IP-100,2013-01-12 00:47:00,
2013-01-11 19:53:00,41.9,41.0,29.86,West,270,0.0,-999.0,97,0.00,,,0.12,Rainwise IP-100,2013-01-12 00:53:00,
2013-01-11 19:58:00,42.0,41.0,29.86,West,270,0.0,-999.0,97,0.00,,,0.12,Rainwise IP-100,2013-01-12 00:58:00,
2013-01-11 20:03:00,42.0,41.0,29.85,West,270,0.0,-999.0,97,0.00,,,0.12,Rainwise IP-100,2013-01-12 01:03:00,
2013-01-11 20:08:00,42.0,41.0,29.85,West,270,0.0,-999.0,97,0.00,,,0.12,Rainwise IP-100,2013-01-12 01:08:00,
2013-01-11 20:13:00,42.0,41.0,29.86,West,270,0.0,-999.0,97,0.00,,,0.12,Rainwise IP-100,2013-01-12 01:13:00,
2013-01-11 20:18:00,42.0,41.0,29.86,West,270,0.0,-999.0,97,0.00,,,0.12,Rainwise IP-100,2013-01-12 01:18:00,
2013-01-11 20:23:00,42.0,41.0,29.85,West,270,0.0,-999.0,97,0.00,,,0.12,Rainwise IP-100,2013-01-12 01:23:00,
2013-01-11 20:28:00,42.0,41.0,29.86,West,270,0.0,-999.0,97,0.00,,,0.12,Rainwise IP-100,2013-01-12 01:28:00,
2013-01-11 20:33:00,42.0,41.0,29.85,West,270,0.0,-999.0,97,0.00,,,0.12,Rainwise IP-100,2013-01-12 01:33:00,
2013-01-11 20:38:00,42.0,41.0,29.85,West,270,0.0,-999.0,97,0.00,,,0.12,Rainwise IP-100,2013-01-12 01:38:00,
2013-01-11 20:43:00,42.0,41.0,29.86,West,270,0.0,-999.0,97,0.00,,,0.12,Rainwise IP-100,2013-01-12 01:43:00,
2013-01-11 20:48:00,42.0,41.0,29.85,West,270,0.0,-999.0,97,0.00,,,0.12,Rainwise IP-100,2013-01-12 01:48:00,
2013-01-11 20:54:00,42.0,41.0,29.84,West,270,0.0,-999.0,97,0.00,,,0.12,Rainwise IP-100,2013-01-12 01:54:00,
2013-01-11 20:59:00,42.0,41.0,29.85,West,270,0.0,-999.0,97,0.00,,,0.12,Rainwise IP-100,2013-01-12 01:59:00,
2013-01-11 21:04:00,42.0,41.0,29.85,West,270,0.0,-999.0,97,0.00,,,0.12,Rainwise IP-100,2013-01-12 02:04:00,
2013-01-11 21:09:00,42.0,41.0,29.85,West,270,0.0,-999.0,97,0.00,,,0.12,Rainwise IP-100,2013-01-12 02:09:00,
2013-01-11 21:14:00,42.0,41.0,29.85,West,270,0.0,-999.0,97,0.00,,,0.12,Rainwise IP-100,2013-01-12 02:14:00,
2013-01-11 21:19:00,42.1,41.0,29.85,West,270,0.0,-999.0,97,0.00,,,0.12,Rainwise IP-100,2013-01-12 02:19:00,
2013-01-11 21:24:00,42.1,41.0,29.87,West,270,0.0,-999.0,97,0.00,,,0.12,Rainwise IP-100,2013-01-12 02:24:00,
2013-01-11 21:29:00,42.2,41.0,29.86,West,270,0.0,-999.0,97,0.00,,,0.12,Rainwise IP-100,2013-01-12 02:29:00,
2013-01-11 21:34:00,42.2,41.0,29.86,West,270,0.0,-999.0,97,0.00,,,0.12,Rainwise IP-100,2013-01-12 02:34:00,
2013-01-11 21:39:00,42.2,41.0,29.85,West,270,0.0,-999.0,98,0.00,,,0.12,Rainwise IP-100,2013-01-12 02:39:00,
2013-01-11 21:44:00,42.2,41.0,29.85,West,270,0.0,-999.0,98,0.00,,,0.12,Rainwise IP-100,2013-01-12 02:44:00,
2013-01-11 21:49:00,42.2,41.0,29.85,West,270,0.0,-999.0,98,0.00,,,0.12,Rainwise IP-100,2013-01-12 02:49:00,
2013-01-11 21:55:00,42.2,41.0,29.86,West,270,0.0,-999.0,98,0.00,,,0.12,Rainwise IP-100,2013-01-12 02:55:00,
2013-01-11 22:01:00,42.2,41.0,29.85,West,270,0.0,-999.0,98,0.00,,,0.12,Rainwise IP-100,2013-01-12 03:01:00,
2013-01-11 22:06:00,42.2,41.0,29.85,West,270,0.0,-999.0,98,0.00,,,0.12,Rainwise IP-100,2013-01-12 03:06:00,
2013-01-11 22:11:00,42.2,41.0,29.85,West,270,0.0,-999.0,98,0.00,,,0.12,Rainwise IP-100,2013-01-12 03:11:00,
2013-01-11 22:16:00,42.2,41.0,29.85,West,270,0.0,-999.0,98,0.00,,,0.12,Rainwise IP-100,2013-01-12 03:16:00,
2013-01-11 22:21:00,42.2,41.0,29.85,West,270,0.0,-999.0,98,0.00,,,0.12,Rainwise IP-100,2013-01-12 03:21:00,
2013-01-11 22:26:00,42.3,41.0,29.85,West,270,0.0,-999.0,98,0.00,,,0.12,Rainwise IP-100,2013-01-12 03:26:00,
2013-01-11 22:31:00,42.3,41.0,29.84,West,270,0.0,-999.0,98,0.00,,,0.12,Rainwise IP-100,2013-01-12 03:31:00,
2013-01-11 22:36:00,42.2,41.0,29.85,WNW,292,0.0,-999.0,98,0.00,,,0.12,Rainwise IP-100,2013-01-12 03:36:00,
2013-01-11 22:41:00,42.2,41.0,29.85,SSW,202,0.0,-999.0,98,0.00,,,0.12,Rainwise IP-100,2013-01-12 03:41:00,
2013-01-11 22:46:00,42.2,41.0,29.84,SSW,202,0.0,-999.0,98,0.00,,,0.12,Rainwise IP-100,2013-01-12 03:46:00,
2013-01-11 22:51:00,42.2,41.0,29.85,SSW,202,0.0,-999.0,98,0.00,,,0.12,Rainwise IP-100,2013-01-12 03:51:00,
2013-01-11 22:57:00,42.2,41.0,29.84,SSW,202,0.0,-999.0,98,0.00,,,0.12,Rainwise IP-100,2013-01-12 03:57:00,
2013-01-11 23:02:00,42.2,41.0,29.84,SSW,202,0.0,-999.0,98,0.00,,,0.12,Rainwise IP-100,2013-01-12 04:02:00,
2013-01-11 23:07:00,42.2,41.0,29.84,SSW,202,0.0,-999.0,98,0.00,,,0.12,Rainwise IP-100,2013-01-12 04:07:00,
2013-01-11 23:12:00,42.1,41.0,29.84,SSW,202,0.0,-999.0,98,0.00,,,0.12,Rainwise IP-100,2013-01-12 04:12:00,
2013-01-11 23:17:00,42.1,41.0,29.84,SSW,202,0.0,-999.0,98,0.00,,,0.12,Rainwise IP-100,2013-01-12 04:17:00,
2013-01-11 23:22:00,42.1,41.0,29.84,SSW,202,0.0,-999.0,98,0.00,,,0.12,Rainwise IP-100,2013-01-12 04:22:00,
2013-01-11 23:27:00,42.1,41.0,29.84,SSW,202,0.0,-999.0,98,0.00,,,0.12,Rainwise IP-100,2013-01-12 04:27:00,
2013-01-11 23:32:00,42.1,41.0,29.84,SSW,202,0.0,-999.0,98,0.00,,,0.12,Rainwise IP-100,2013-01-12 04:32:00,
2013-01-11 23:37:00,42.0,41.0,29.84,SSW,202,0.0,-999.0,98,0.00,,,0.12,Rainwise IP-100,2013-01-12 04:37:00,
2013-01-11 23:42:00,42.0,41.0,29.84,SSW,202,0.0,-999.0,98,0.00,,,0.12,Rainwise IP-100,2013-01-12 04:42:00,
2013-01-11 23:47:00,42.0,41.0,29.84,SSW,202,0.0,-999.0,98,0.00,,,0.12,Rainwise IP-100,2013-01-12 04:47:00,
2013-01-11 23:53:00,42.0,41.0,29.84,SSW,202,0.0,-999.0,98,0.00,,,0.12,Rainwise IP-100,2013-01-12 04:53:00,
2013-01-11 23:58:00,42.0,41.0,29.84,SSW,202,0.0,-999.0,98,0.00,,,0.12,Rainwise IP-100,2013-01-12 04:58:00,